DW0805 Ramloese DK current weather conditions

sailwx.info

Wind from 206 at 6 knots gusting 13

Air temperature 3.3° C
Dewpoint 1.4° C

Last reported at 2015-Mar-31 02:45 UTC.
Time now 2015-Mar-31 03:20 UTC

Location: N 56°01' E 012°05'.
View on Google Maps.

See reports from other nearby stations

  
Tides and Currents Weather Stations Pressure Air Temp Water Temp Dewpoint Dewpoint Depression Visibility Wind Speed Wind Dir Waves Ship Positions
date/time (UTC)wind fromknots sea level pressurealtimeterstation pressurevisibilityair tempwater tempwave heightnotes
2015-Mar-31 02:45 206 6 gusting 13 3.3
2015-Mar-31 02:35 210 6 gusting 13 3.3
2015-Mar-31 02:25 240 8 gusting 13 3.3
2015-Mar-31 02:15 244 8 gusting 13 3.3
2015-Mar-31 02:05 236 8 gusting 13 3.3
2015-Mar-31 01:55 247 6 gusting 13 3.3
2015-Mar-31 01:45 250 8 gusting 13 3.3
2015-Mar-31 01:35 240 6 gusting 10 3.3
2015-Mar-31 01:25 250 6 gusting 8 2.8
2015-Mar-31 01:15 250 6 gusting 10 2.8
2015-Mar-31 01:05 254 6 gusting 12 2.8
2015-Mar-31 00:55 258 8 gusting 12 2.8
2015-Mar-31 00:45 264 8 gusting 14 3.3
2015-Mar-31 00:35 263 8 gusting 13 3.3
2015-Mar-31 00:25 253 9 gusting 14 3.3
2015-Mar-31 00:15 261 7 gusting 13 3.3
2015-Mar-31 00:05 259 8 gusting 13 3.3
2015-Mar-30 23:55 251 9 gusting 15 3.9
2015-Mar-30 23:45 268 10 gusting 17 3.9
2015-Mar-30 23:35 287 10 gusting 18 3.9
2015-Mar-30 23:25 290 14 gusting 18 3.9
2015-Mar-30 23:15 290 13 gusting 19 3.9
2015-Mar-30 23:05 272 11 gusting 17 3.9
2015-Mar-30 22:55 288 12 gusting 20 3.9
2015-Mar-30 22:45 276 12 gusting 24 3.9
2015-Mar-30 22:35 277 15 gusting 26 3.9
2015-Mar-30 22:25 276 15 gusting 19 3.9
2015-Mar-30 22:15 281 11 gusting 20 4.4
2015-Mar-30 22:05 284 12 gusting 19 4.4
2015-Mar-30 21:55 286 13 gusting 20 4.4
2015-Mar-30 21:45 299 14 gusting 19 4.4
2015-Mar-30 21:35 282 15 gusting 20 4.4
2015-Mar-30 21:25 287 14 gusting 21 4.4
2015-Mar-30 21:15 292 13 gusting 21 4.4
2015-Mar-30 21:05 283 11 gusting 20 4.4
2015-Mar-30 20:55 284 13 gusting 20 4.4
2015-Mar-30 20:45 285 14 gusting 20 4.4
2015-Mar-30 20:35 269 11 gusting 19 5.0
2015-Mar-30 20:25 306 13 gusting 19 5.0
2015-Mar-30 20:15 303 13 gusting 20 5.0
2015-Mar-30 19:55 285 10 gusting 14 5.0
2015-Mar-30 19:45 310 12 gusting 17 5.0
2015-Mar-30 19:35 291 9 gusting 18 5.0
2015-Mar-30 19:25 300 13 gusting 17 5.0
2015-Mar-30 19:15 296 12 gusting 20 5.0
2015-Mar-30 19:05 296 14 gusting 19 5.0
2015-Mar-30 18:55 322 11 gusting 21 5.6
2015-Mar-30 18:45 306 13 gusting 20 5.6
2015-Mar-30 18:35 304 12 gusting 21 5.6
2015-Mar-30 18:25 294 13 gusting 21 5.6
2015-Mar-30 18:15 301 11 gusting 19 5.6
2015-Mar-30 18:05 300 13 gusting 21 6.1
2015-Mar-30 17:55 315 13 gusting 20 6.1
2015-Mar-30 17:45 308 13 gusting 21 6.1
2015-Mar-30 17:35 324 11 gusting 18 6.7
2015-Mar-30 17:25 339 13 gusting 17 6.7
2015-Mar-30 17:15 323 12 gusting 19 6.7
2015-Mar-30 17:05 310 10 gusting 19 6.7
2015-Mar-30 16:55 311 11 gusting 19 7.2
2015-Mar-30 16:45 312 11 gusting 15 7.2
2015-Mar-30 16:35 297 12 gusting 17 7.8
2015-Mar-30 16:25 318 13 gusting 21 7.8
2015-Mar-30 16:15 305 8 gusting 17 7.8
2015-Mar-30 16:05 320 12 gusting 15 8.3
2015-Mar-30 15:55 310 12 gusting 19 8.3
2015-Mar-30 15:45 333 10 gusting 18 8.3
2015-Mar-30 15:35 325 12 gusting 15 8.9
2015-Mar-30 15:25 336 9 gusting 17 8.9
2015-Mar-30 15:15 317 11 gusting 18 8.3
2015-Mar-30 15:05 329 12 gusting 18 8.3
2015-Mar-30 14:55 323 11 gusting 18 8.3
2015-Mar-30 14:45 313 12 gusting 17 7.8
2015-Mar-30 14:35 323 14 gusting 19 7.8
2015-Mar-30 14:25 313 13 gusting 19 8.3
2015-Mar-30 14:15 326 11 gusting 17 8.9
2015-Mar-30 14:05 317 11 gusting 15 8.9
2015-Mar-30 13:55 297 11 gusting 18 8.3
2015-Mar-30 13:45 314 11 gusting 19 8.3
2015-Mar-30 13:35 328 12 gusting 19 8.3
2015-Mar-30 13:25 309 13 gusting 19 8.3
2015-Mar-30 13:15 312 13 gusting 20 8.3
2015-Mar-30 13:05 303 13 gusting 20 8.3
2015-Mar-30 12:55 306 12 gusting 19 8.9
2015-Mar-30 12:45 320 11 gusting 19 8.9
2015-Mar-30 12:35 291 13 gusting 19 8.3
2015-Mar-30 12:25 314 12 gusting 17 8.3
2015-Mar-30 12:15 324 11 gusting 17 7.8
2015-Mar-30 12:05 303 11 gusting 15 7.2
2015-Mar-30 11:55 313 12 gusting 17 7.2
2015-Mar-30 11:45 309 10 gusting 15 7.2
2015-Mar-30 11:35 335 7 gusting 17 6.7
2015-Mar-30 11:25 320 13 gusting 19 6.7
2015-Mar-30 11:15 325 11 gusting 18 6.7
2015-Mar-30 11:05 335 11 gusting 19 6.7
2015-Mar-30 10:55 335 10 gusting 15 6.7
2015-Mar-30 10:45 291 12 gusting 15 6.7
2015-Mar-30 10:35 313 11 gusting 17 6.7
2015-Mar-30 10:25 322 10 gusting 18 6.7
2015-Mar-30 10:15 346 10 gusting 13 6.1
2015-Mar-30 10:05 299 8 gusting 17 6.1
2015-Mar-30 09:55 329 10 gusting 15 5.6
2015-Mar-30 09:45 326 8 gusting 15 5.6
2015-Mar-30 09:35 317 11 gusting 18 5.6
2015-Mar-30 09:25 309 10 gusting 18 5.0
2015-Mar-30 09:15 313 12 gusting 18 5.0
2015-Mar-30 09:05 324 13 gusting 19 5.0
2015-Mar-30 08:55 323 12 gusting 19 5.0
2015-Mar-30 08:45 325 13 gusting 19 5.0
2015-Mar-30 08:35 333 12 gusting 18 4.4
2015-Mar-30 08:25 327 12 gusting 20 4.4
2015-Mar-30 08:15 328 15 gusting 21 4.4
2015-Mar-30 08:05 302 12 gusting 19 4.4
2015-Mar-30 07:55 328 11 gusting 19 4.4
2015-Mar-30 07:45 312 11 gusting 15 4.4
2015-Mar-30 07:35 326 10 gusting 15 4.4
2015-Mar-30 07:25 330 10 gusting 17 4.4
2015-Mar-30 07:15 328 9 gusting 17 4.4
2015-Mar-30 07:05 328 12 gusting 19 3.9
2015-Mar-30 06:55 316 13 gusting 18 4.4
2015-Mar-30 06:45 328 13 gusting 18 4.4
2015-Mar-30 06:35 286 12 gusting 17 3.9
2015-Mar-30 06:25 315 10 gusting 17 3.9
2015-Mar-30 06:15 333 13 gusting 18 3.9
2015-Mar-30 06:05 311 13 gusting 19 3.9
2015-Mar-30 05:55 335 10 gusting 19 3.9
2015-Mar-30 05:45 327 12 gusting 19 3.9
2015-Mar-30 05:35 325 10 gusting 19 3.9
2015-Mar-30 05:25 311 12 gusting 18 3.9
2015-Mar-30 05:15 319 12 gusting 18 3.9
2015-Mar-30 05:05 301 13 gusting 21 3.9
2015-Mar-30 04:55 314 8 gusting 15 3.9
2015-Mar-30 04:45 323 8 gusting 15 3.9
2015-Mar-30 04:35 305 10 gusting 15 3.9
2015-Mar-30 04:25 311 12 gusting 15 3.9
2015-Mar-30 04:15 321 11 gusting 15 4.4
2015-Mar-30 04:05 296 11 gusting 15 5.0
2015-Mar-30 03:55 305 7 gusting 13 5.0
2015-Mar-30 03:45 308 7 gusting 13 5.0
2015-Mar-30 03:35 289 5 gusting 8 5.0
2015-Mar-30 03:25 307 4 gusting 10 5.0
2015-Mar-30 03:15 317 6 gusting 10 5.0
2015-Mar-30 03:05 306 6 gusting 11 5.0
2015-Mar-30 02:55 320 5 gusting 10 5.0
2015-Mar-30 02:45 311 5 gusting 8 5.0
2015-Mar-30 02:35 327 6 gusting 8 5.0
2015-Mar-30 02:25 316 6 gusting 10 5.0
2015-Mar-30 02:15 311 7 gusting 12 4.4
2015-Mar-30 02:05 300 4 gusting 6 4.4
2015-Mar-30 01:55 321 5 gusting 7 4.4
2015-Mar-30 01:45 322 4 gusting 7 4.4
2015-Mar-30 01:35 324 3 gusting 7 4.4
2015-Mar-30 01:25 330 5 gusting 10 4.4
2015-Mar-30 01:15 333 4 gusting 7 4.4
2015-Mar-30 01:05 347 2 gusting 6 4.4
2015-Mar-30 00:55 002 1 gusting 5 4.4
2015-Mar-30 00:45 002 2 gusting 5 4.4
2015-Mar-30 00:35 002 1 gusting 5 4.4
2015-Mar-30 00:25 001 2 gusting 5 4.4
2015-Mar-30 00:15 001 4 gusting 5 4.4
2015-Mar-30 00:05 005 2 gusting 5 5.0
2015-Mar-29 23:55 005 2 gusting 5 5.0
2015-Mar-29 23:45 005 2 gusting 5 5.0
2015-Mar-29 23:35 005 4 gusting 7 5.0
2015-Mar-29 23:25 026 4 gusting 5 5.0
2015-Mar-29 23:15 180 2 gusting 4 5.6
2015-Mar-29 23:05 180 1 gusting 4 5.6
2015-Mar-29 22:55 180 0 gusting 2 5.6
2015-Mar-29 22:45 180 0 gusting 1 5.6
2015-Mar-29 22:35 180 0 gusting 1 5.6
2015-Mar-29 22:25 180 0 gusting 1 5.6
2015-Mar-29 22:15 180 5.6
2015-Mar-29 22:05 180 5.6
2015-Mar-29 21:55 180 5.6
2015-Mar-29 21:45 180 5.6
2015-Mar-29 21:35 180 6.1
2015-Mar-29 21:25 180 6.1
2015-Mar-29 21:15 180 6.1
2015-Mar-29 21:05 180 6.1
2015-Mar-29 20:55 180 0 gusting 2 6.1
2015-Mar-29 20:45 180 1 gusting 4 6.1
2015-Mar-29 20:35 180 2 gusting 6 6.1
2015-Mar-29 20:25 183 5 gusting 6 6.1
2015-Mar-29 20:15 188 5 gusting 6 6.1
2015-Mar-29 20:05 187 6 gusting 8 6.1
2015-Mar-29 19:55 187 5 gusting 7 6.1
2015-Mar-29 19:45 186 5 gusting 7 6.1
2015-Mar-29 19:35 200 4 gusting 7 6.1
2015-Mar-29 19:25 190 5 gusting 8 6.1
2015-Mar-29 19:15 206 6 gusting 10 6.1
2015-Mar-29 19:05 192 6 gusting 12 6.1
2015-Mar-29 18:55 211 7 gusting 13 6.7
2015-Mar-29 18:45 204 6 gusting 12 6.7
2015-Mar-29 18:35 208 7 gusting 13 6.7
2015-Mar-29 18:25 200 7 gusting 13 7.2
2015-Mar-29 18:15 205 10 gusting 14 7.2
2015-Mar-29 18:05 224 12 gusting 15 7.2
2015-Mar-29 17:55 201 8 gusting 12 7.2
2015-Mar-29 17:45 206 6 gusting 13 7.2
2015-Mar-29 17:35 209 10 gusting 12 7.2
2015-Mar-29 17:25 224 12 gusting 14 7.2
2015-Mar-29 17:15 229 11 gusting 15 7.2
2015-Mar-29 17:05 230 12 gusting 15 7.8
2015-Mar-29 16:55 221 12 gusting 15 7.8
2015-Mar-29 16:45 227 11 gusting 14 7.8
2015-Mar-29 16:35 221 10 gusting 13 7.8
2015-Mar-29 16:25 226 11 gusting 17 7.8
2015-Mar-29 16:15 234 12 gusting 15 7.8
2015-Mar-29 16:05 233 12 gusting 15 8.3
2015-Mar-29 15:55 245 9 gusting 13 8.3
2015-Mar-29 15:45 252 7 gusting 13 8.3
2015-Mar-29 15:35 244 8 gusting 14 8.3
2015-Mar-29 15:25 292 11 gusting 15 8.3
2015-Mar-29 15:15 236 8 gusting 13 8.3
2015-Mar-29 15:05 240 9 gusting 14 8.3
2015-Mar-29 14:55 235 7 gusting 13 8.3
2015-Mar-29 14:45 238 10 gusting 13 8.3
2015-Mar-29 14:35 240 8 gusting 13 8.3
2015-Mar-29 14:25 240 10 gusting 15 8.3
2015-Mar-29 14:15 239 10 gusting 15 7.8
2015-Mar-29 14:05 225 11 gusting 14 7.8
2015-Mar-29 13:55 234 10 gusting 13 7.2
2015-Mar-29 13:45 236 10 gusting 12 7.2
2015-Mar-29 13:35 295 7 gusting 13 7.2
2015-Mar-29 13:25 242 4 gusting 11 7.2
2015-Mar-29 13:15 254 8 gusting 18 6.7
2015-Mar-29 13:05 312 10 gusting 13 7.2
2015-Mar-29 12:55 247 8 gusting 13 7.8
2015-Mar-29 12:45 254 6 gusting 11 7.8
2015-Mar-29 12:35 261 7 gusting 12 7.8
2015-Mar-29 12:25 248 7 gusting 10 8.3
2015-Mar-29 12:15 236 6 gusting 11 8.3
2015-Mar-29 12:05 296 7 gusting 13 8.3
2015-Mar-29 11:55 250 8 gusting 12 8.3
2015-Mar-29 11:45 226 8 gusting 13 8.3
2015-Mar-29 11:35 254 6 gusting 8 8.9
2015-Mar-29 11:25 304 6 gusting 13 8.9
2015-Mar-29 11:15 268 9 gusting 14 9.4
2015-Mar-29 11:05 273 10 gusting 15 9.4
2015-Mar-29 10:55 251 11 gusting 18 8.9
2015-Mar-29 10:45 262 11 gusting 17 9.4
2015-Mar-29 10:35 259 8 gusting 17 8.9
2015-Mar-29 10:25 268 10 gusting 20 8.9
2015-Mar-29 10:15 256 14 gusting 19 8.9
2015-Mar-29 10:05 268 11 gusting 20 8.9
2015-Mar-29 09:55 244 11 gusting 19 9.4
2015-Mar-29 09:45 249 14 gusting 19 9.4
2015-Mar-29 09:35 243 12 gusting 15 9.4
2015-Mar-29 09:25 259 7 gusting 15 9.4
2015-Mar-29 09:15 261 10 gusting 15 8.9
2015-Mar-29 09:05 249 7 gusting 14 8.9
2015-Mar-29 08:55 264 6 gusting 10 8.3
2015-Mar-29 08:45 256 7 gusting 12 7.8
2015-Mar-29 08:35 258 5 gusting 8 7.8
2015-Mar-29 08:25 312 6 gusting 12 7.8
2015-Mar-29 08:15 264 6 gusting 8 7.2
2015-Mar-29 08:05 327 6 gusting 10 7.2
2015-Mar-29 07:55 323 4 gusting 13 7.2
2015-Mar-29 07:45 284 6 gusting 10 7.2
2015-Mar-29 07:35 313 6 gusting 11 7.8
2015-Mar-29 07:25 299 6 gusting 12 7.2
2015-Mar-29 07:15 285 4 gusting 8 6.7
2015-Mar-29 07:05 302 4 gusting 10 6.7
2015-Mar-29 06:55 297 6 gusting 11 6.7
2015-Mar-29 06:45 326 6 gusting 12 6.7
2015-Mar-29 06:35 326 7 gusting 15 7.2
2015-Mar-29 06:25 266 8 gusting 13 7.2
2015-Mar-29 06:15 266 7 gusting 12 7.2
2015-Mar-29 06:05 306 8 gusting 15 7.2
2015-Mar-29 05:55 241 12 gusting 15 7.2
2015-Mar-29 05:45 237 12 gusting 15 7.2
2015-Mar-29 05:35 207 11 gusting 14 7.2
2015-Mar-29 05:25 203 11 gusting 14 7.2
2015-Mar-29 05:15 209 11 gusting 14 7.2
2015-Mar-29 05:05 208 9 gusting 13 6.7
2015-Mar-29 04:55 212 11 gusting 14 6.7
2015-Mar-29 04:45 208 11 gusting 14 6.7
2015-Mar-29 04:35 196 8 gusting 15 6.7
2015-Mar-29 04:25 190 10 gusting 15 6.7
2015-Mar-29 04:15 199 9 gusting 15 6.1
2015-Mar-29 04:05 189 9 gusting 14 6.1
2015-Mar-29 03:55 190 10 gusting 13 6.1
2015-Mar-29 03:45 201 11 gusting 15 6.1
2015-Mar-29 03:35 192 11 gusting 15 5.6
2015-Mar-29 03:25 190 10 gusting 15 5.6
2015-Mar-29 03:15 192 11 gusting 15 5.6
2015-Mar-29 03:05 196 12 gusting 18 5.6